TimeCDT,TemperatureF,Dew PointF,Humidity,Sea Level PressureIn,VisibilityMPH,Wind Direction,Wind SpeedMPH,Gust SpeedMPH,PrecipitationIn,Events,Conditions,WindDirDegrees,DateUTC
12:53 AM,79.0,62.1,56,29.91,10.0,South,11.5,-,N/A,,Clear,180,2013-08-29 05:53:00
1:53 AM,78.1,63.0,60,29.89,10.0,South,9.2,-,N/A,,Clear,190,2013-08-29 06:53:00
2:53 AM,75.9,63.0,64,29.88,10.0,South,11.5,-,N/A,,Clear,190,2013-08-29 07:53:00
3:53 AM,75.9,63.0,64,29.86,10.0,South,12.7,-,N/A,,Clear,180,2013-08-29 08:53:00
4:53 AM,75.0,63.0,66,29.85,10.0,South,15.0,-,N/A,,Clear,190,2013-08-29 09:53:00
5:53 AM,73.9,62.1,66,29.85,10.0,South,11.5,-,N/A,,Clear,190,2013-08-29 10:53:00
6:53 AM,73.0,62.1,68,29.86,10.0,South,13.8,-,N/A,,Clear,190,2013-08-29 11:53:00
7:53 AM,73.0,62.1,68,29.87,10.0,SW,10.4,21.9,N/A,,Clear,220,2013-08-29 12:53:00
8:53 AM,75.9,63.0,64,29.88,10.0,SSW,11.5,-,N/A,,Clear,210,2013-08-29 13:53:00
9:53 AM,82.0,64.0,54,29.88,10.0,South,5.8,-,N/A,,Clear,180,2013-08-29 14:53:00
10:53 AM,87.1,64.0,46,29.88,10.0,SSW,6.9,-,N/A,,Clear,200,2013-08-29 15:53:00
11:53 AM,91.9,64.0,39,29.87,10.0,South,4.6,-,N/A,,Clear,190,2013-08-29 16:53:00
12:53 PM,97.0,61.0,30,29.85,10.0,SSW,6.9,-,N/A,,Clear,200,2013-08-29 17:53:00
1:53 PM,99.0,55.0,23,29.83,10.0,South,10.4,16.1,N/A,,Clear,190,2013-08-29 18:53:00
2:53 PM,100.9,55.9,22,29.83,10.0,SSW,8.1,-,N/A,,Clear,200,2013-08-29 19:53:00
3:53 PM,100.9,54.0,21,29.82,10.0,WNW,9.2,-,N/A,,Clear,300,2013-08-29 20:53:00
4:53 PM,102.0,55.9,22,29.82,10.0,WNW,9.2,-,N/A,,Clear,300,2013-08-29 21:53:00
5:53 PM,100.9,61.0,27,29.82,10.0,NW,8.1,-,N/A,,Clear,320,2013-08-29 22:53:00
6:53 PM,97.0,64.0,34,29.83,10.0,North,8.1,-,N/A,,Clear,360,2013-08-29 23:53:00
7:53 PM,89.1,66.0,46,29.86,10.0,North,10.4,-,N/A,,Clear,360,2013-08-30 00:53:00
8:53 PM,84.0,66.9,56,29.88,10.0,North,8.1,-,N/A,,Clear,350,2013-08-30 01:53:00
9:53 PM,80.1,69.1,69,29.89,10.0,NNW,6.9,-,N/A,,Clear,340,2013-08-30 02:53:00
10:53 PM,79.0,70.0,74,29.90,10.0,Calm,Calm,-,N/A,,Clear,0,2013-08-30 03:53:00
11:53 PM,77.0,69.1,76,29.91,10.0,NW,4.6,-,N/A,,Clear,310,2013-08-30 04:53:00